This is the latest recevied weather packets stored in our database for station/object W0BJ. If no packets are shown the sender has not sent any weather packets the latest 10 day(s).
| Time | Temp. | Humidity | Pressure | Rain* | Wind** | Luminosity | Snow |
|---|---|---|---|---|---|---|---|
| 1778178200 | 20.56° C | 35% | 1018 hPa | 0 mm | - | - | - |
| 1778177628 | 20.56° C | 34% | 1018 hPa | 0 mm | - | - | - |
| 1778177302 | 20.56° C | 35% | 1018.2 hPa | 0 mm | - | - | - |
| 1778177028 | 20.56° C | 35% | 1018.3 hPa | 0 mm | - | - | - |
| 1778176401 | 20° C | 35% | 1018.5 hPa | 0 mm | - | - | - |
| 1778175827 | 20° C | 37% | 1018.5 hPa | 0 mm | - | - | - |
| 1778175500 | 20° C | 36% | 1018.5 hPa | 0 mm | - | - | - |
| 1778175226 | 20.56° C | 36% | 1018.6 hPa | 0 mm | - | - | - |
| 1778174602 | 20° C | 39% | 1018.7 hPa | 0 mm | - | - | - |
| 1778174027 | 19.44° C | 37% | 1018.8 hPa | 0 mm | - | - | - |
| 1778173701 | 19.44° C | 36% | 1019 hPa | 0 mm | - | - | - |
| 1778173427 | 19.44° C | 37% | 1019.1 hPa | 0 mm | - | - | - |
| 1778172800 | 18.89° C | 39% | 1019.4 hPa | 0 mm | - | - | - |
| 1778172228 | 18.89° C | 39% | 1019.4 hPa | 0 mm | - | - | - |
| 1778171902 | 18.89° C | 39% | 1019.4 hPa | 0 mm | - | - | - |
| 1778171627 | 18.89° C | 39% | 1019.5 hPa | 0 mm | - | - | - |
| 1778171001 | 18.33° C | 39% | 1019.7 hPa | 0 mm | - | - | - |
| 1778170427 | 18.33° C | 39% | 1019.6 hPa | 0 mm | - | - | - |
| 1778170102 | 18.33° C | 39% | 1019.6 hPa | 0 mm | - | - | - |
| 1778169827 | 17.78° C | 39% | 1019.5 hPa | 0 mm | - | - | - |
| 1778169201 | 17.78° C | 39% | 1019.7 hPa | 0 mm | - | - | - |
| 1778168627 | 17.78° C | 40% | 1019.9 hPa | 0 mm | - | - | - |
| 1778168300 | 17.22° C | 41% | 1019.9 hPa | 0 mm | - | - | - |
| 1778168026 | 17.22° C | 41% | 1019.9 hPa | 0 mm | - | - | - |
| 1778167402 | 17.22° C | 41% | 1019.9 hPa | 0 mm | - | - | - |
* Rain latest hour (hover to see other rain measurements)
** Current wind speed in m/s (hover to see current wind gust speed)